Wind_Speed
10 10 10 10 10 10 10 10 10 11 10 10 10 11 11 12 12 12 12 13 12 12 12 13 13 13 13 13 13 13 13 13 13 13 13 13 13 14 13 14 14 15 16
11 10 11 11 11 11 11 11 11 11 11 11 11 11 12 13 13 13 13 13 13 12 12 13 13 13 13 13 13 13 13 13 13 13 13 13 13 13 13 14 15 15 16
12 12 11 11 11 10 11 11 11 11 11 12 12 12 13 13 13 13 13 12 12 13 13 13 13 14 14 14 13 13 13 13 13 13 14 13 14 14 14 14 15 15 15
11 11 11 11 10 10 10 10 11 11 12 12 12 12 13 13 12 13 13 13 13 14 14 14 14 14 14 14 14 14 13 14 13 13 14 14 14 15 15 14 15 15 15
11 10 10 10 10 10 10 10 11 11 12 12 12 13 13 13 13 13 13 13 14 14 14 14 15 15 15 15 14 13 13 13 13 13 14 14 15 15 15 15 15 15 15
10 10 10 9 10 11 11 11 11 12 12 12 12 13 13 13 13 13 14 14 14 14 14 14 15 15 15 15 14 13 12 12 13 13 13 13 13 14 15 15 16 16 16
10 11 10 10 11 11 11 11 12 12 12 12 12 13 13 13 14 14 14 14 14 14 15 15 15 14 14 13 13 13 13 12 13 14 14 14 13 14 14 15 16 16 16
10 11 11 11 11 11 11 12 12 12 12 13 13 13 13 13 14 14 14 15 15 15 15 15 14 13 12 12 12 13 13 13 13 13 14 14 13 13 14 16 16 16 17
11 11 12 12 12 11 12 12 12 13 13 13 13 12 13 13 14 15 15 15 15 15 15 15 14 13 13 13 14 14 14 15 14 14 14 14 15 15 15 15 16 18 18
12 12 12 13 13 13 13 13 13 13 13 13 13 13 14 14 14 15 15 15 15 15 15 16 15 15 14 14 14 15 15 16 15 16 16 16 16 15 16 16 16 17 18
13 13 14 14 14 14 13 13 14 14 14 14 14 14 15 15 15 15 15 15 16 16 16 16 16 16 15 16 16 16 16 17 17 17 17 17 17 17 17 17 18 17 17
14 15 15 15 15 15 15 14 14 14 15 15 15 16 16 17 17 16 16 16 17 17 18 18 18 18 17 17 18 18 18 18 19 19 18 18 18 19 19 19 19 18 18
16 16 16 16 16 16 15 15 15 16 16 16 17 17 18 18 18 18 18 18 18 18 19 19 19 20 19 19 19 20 20 20 20 20 20 20 20 20 20 20 20 19 19
17 17 16 16 16 17 16 16 16 17 17 18 19 19 19 20 20 19 20 20 20 19 19 20 20 21 21 21 21 21 21 20 21 21 21 21 21 20 20 20 20 21 20
18 18 17 17 17 17 17 18 18 18 19 19 20 20 21 22 22 22 22 21 21 20 20 21 21 21 22 23 22 22 21 21 21 21 22 22 22 22 22 22 22 22 22
20 19 19 19 18 18 19 19 19 19 20 21 21 21 22 22 23 23 22 22 22 21 21 21 22 22 23 23 23 23 22 22 22 23 23 23 23 23 23 23 23 23 23
20 20 20 20 20 20 20 20 20 20 21 22 22 23 23 23 23 23 23 23 22 22 21 21 22 22 22 23 23 23 23 23 23 24 23 23 24 24 24 24 24 24 24
21 22 22 22 21 21 21 21 21 22 22 23 23 23 24 24 24 24 23 23 22 22 22 22 22 22 22 23 23 24 24 24 24 25 25 25 25 25 25 25 26 26 26
22 23 23 23 23 22 23 23 23 23 23 24 24 24 24 24 24 24 24 24 23 23 23 23 23 23 23 23 24 24 25 25 25 25 26 26 26 26 27 27 27 27 27
23 23 24 24 24 24 24 24 24 24 25 25 25 25 25 24 24 24 24 25 25 25 25 25 24 23 23 24 25 25 25 26 26 26 26 27 27 28 28 27 28 28 28
24 24 25 25 25 25 25 25 25 26 26 26 26 25 25 25 25 26 26 26 26 26 26 26 25 25 25 25 26 26 26 26 27 27 26 26 27 27 28 29 29 30 29
26 25 25 25 25 26 26 27 27 27 27 27 27 26 26 26 26 27 27 28 27 27 27 26 26 26 26 26 26 26 26 27 27 28 27 27 28 28 28 29 29 30 31
27 27 27 27 27 27 28 28 28 29 28 28 28 28 28 27 27 28 28 28 28 28 28 28 27 27 27 27 27 27 28 28 29 29 30 29 30 30 30 30 30 31 31
28 27 28 28 28 28 28 29 29 29 29 29 29 29 29 29 29 29 29 29 29 29 29 28 28 28 28 29 29 29 29 30 30 31 31 30 30 31 31 31 31 31 32
29 29 29 29 29 29 29 29 30 30 30 30 30 30 29 29 29 29 30 30 29 29 30 29 29 29 30 30 30 30 31 31 31 31 32 32 31 32 32 31 31 31 31
30 31 31 31 30 30 30 30 30 30 30 30 30 30 29 29 29 30 30 30 30 30 30 30 30 31 31 31 31 31 32 32 32 32 32 33 32 32 31 31 31 30 31
Wind_Direction
287 283 280 279 282 284 284 286 285 284 285 285 283 283 283 283 282 278 278 275 273 274 274 274 272 272 274 273 273 272 269 265 263 262 261 259 257 256 253 251 251 251 251
286 283 283 283 286 285 284 284 282 281 283 282 280 282 282 281 281 280 280 277 273 272 273 273 273 274 275 273 271 271 270 265 264 262 261 258 255 253 253 253 253 253 253
287 287 286 286 285 282 283 284 283 281 281 281 281 281 280 280 280 280 280 276 273 273 272 275 273 273 273 274 271 271 269 267 266 264 261 258 256 254 255 256 254 253 253
290 287 286 286 287 285 286 286 287 285 284 283 282 281 283 284 283 284 282 277 276 277 276 278 278 275 272 272 270 269 268 266 264 262 261 260 257 255 256 258 255 253 254
290 291 287 286 286 287 286 286 288 288 288 287 284 283 285 283 282 284 285 281 278 278 278 279 280 281 275 271 267 267 268 266 264 263 262 258 257 256 256 257 256 256 257
289 290 291 290 289 290 289 287 286 288 290 290 289 287 286 284 284 285 285 284 280 279 280 281 283 283 280 275 267 264 266 267 264 263 263 259 257 258 259 259 258 259 259
288 289 289 292 293 291 290 289 288 290 291 291 291 289 287 285 286 286 286 285 282 279 280 281 282 283 280 276 268 265 265 265 265 262 261 260 258 258 261 261 260 260 259
288 289 288 289 291 291 291 292 290 291 291 292 292 290 288 287 287 287 287 285 283 282 283 282 283 283 280 275 269 267 268 267 266 265 263 263 265 262 260 262 262 263 263
289 287 288 288 288 288 290 290 289 290 292 293 292 290 289 291 291 290 289 287 284 281 280 280 279 280 279 273 269 268 269 268 267 268 269 269 270 269 266 265 266 267 265
290 289 288 287 287 285 285 288 289 290 292 293 291 289 289 289 292 292 290 288 285 282 280 278 277 276 274 273 271 270 269 268 268 268 268 270 272 273 272 270 271 268 266
289 288 290 288 285 284 282 284 287 288 289 290 289 289 290 289 288 289 290 288 285 282 282 280 278 277 275 274 274 273 271 269 269 269 268 269 272 273 274 273 273 272 270
290 288 289 290 287 283 281 280 282 285 287 286 286 286 287 288 288 289 288 286 284 284 283 282 280 277 275 275 275 274 273 272 270 268 268 269 271 272 272 272 272 272 271
288 287 285 286 286 284 281 280 282 283 285 286 286 285 286 288 289 288 288 287 285 283 282 282 280 278 275 274 274 275 274 273 272 270 270 269 270 270 271 271 271 270 269
284 284 283 282 283 283 281 281 282 283 284 285 286 286 288 289 289 289 289 288 286 284 282 280 280 278 276 275 273 274 274 274 274 273 271 270 270 268 269 269 270 268 268
281 283 283 282 281 282 283 281 281 283 284 285 287 287 287 288 289 291 290 289 288 285 283 281 280 279 276 275 273 271 273 272 272 272 272 272 271 269 268 267 268 267 267
279 281 281 280 279 279 281 281 280 282 284 285 285 287 287 288 290 291 291 289 288 286 283 281 280 278 276 274 273 271 270 271 271 270 270 270 270 269 268 267 267 267 268
279 279 280 278 278 279 280 280 280 281 282 284 285 286 288 289 290 291 291 290 288 288 285 282 279 277 275 274 272 272 271 272 272 271 269 269 269 268 268 267 266 267 267
279 278 278 277 278 279 280 281 283 283 283 283 284 286 288 289 289 289 289 289 288 289 287 284 281 279 277 275 274 273 274 273 272 271 270 269 268 267 267 268 266 266 266
278 278 276 277 277 278 279 280 283 284 284 285 285 286 287 288 287 287 288 288 288 288 287 285 284 282 280 278 276 275 274 273 271 270 269 269 269 269 268 268 267 266 266
275 276 276 276 278 278 279 280 281 283 284 285 286 287 287 287 287 287 288 288 287 287 286 284 283 281 282 280 277 276 274 274 272 272 271 270 270 270 269 269 268 268 268
275 275 276 276 277 278 280 281 283 284 284 285 286 286 286 285 286 287 288 288 287 286 284 281 281 281 281 280 278 276 275 274 273 273 272 272 272 272 270 269 268 268 268
274 275 275 276 277 279 280 280 282 283 284 285 285 284 284 284 286 287 287 288 288 286 284 281 279 279 279 279 278 276 274 273 272 272 271 270 270 271 271 268 268 268 267
274 274 274 275 276 278 279 281 282 283 284 284 284 284 283 283 285 286 287 288 288 286 284 281 279 279 278 277 276 276 276 275 274 273 272 272 271 271 271 270 268 267 267
273 273 275 275 276 278 280 282 283 284 284 284 284 284 284 283 284 286 287 287 288 286 283 281 281 280 279 278 276 276 275 275 275 274 273 272 271 270 270 269 268 268 267
273 273 275 275 276 278 279 280 281 281 282 284 284 284 283 283 284 285 286 287 287 285 282 281 281 280 280 278 277 277 276 276 276 275 274 273 271 269 268 268 269 268 268
276 274 274 275 277 277 277 279 281 282 283 284 284 284 284 284 285 286 286 286 285 284 281 280 280 279 279 279 278 277 277 277 276 275 275 273 271 270 268 267 268 268 268
Height
5854 5854 5853 5852 5852 5851 5850 5850 5850 5849 5848 5848 5847 5846 5846 5845 5845 5844 5843 5843 5843 5842 5841 5841 5841 5840 5839 5838 5838 5837 5837 5837 5836 5836 5836 5836 5837 5838 5838 5839 5840 5840 5841
5852 5851 5851 5850 5849 5848 5848 5847 5847 5846 5846 5845 5845 5844 5843 5842 5842 5841 5840 5840 5839 5839 5839 5838 5837 5837 5836 5835 5835 5834 5834 5833 5833 5833 5833 5833 5834 5834 5835 5836 5836 5837 5837
5849 5848 5848 5847 5846 5846 5845 5845 5844 5843 5843 5842 5842 5841 5840 5840 5838 5838 5837 5837 5836 5836 5835 5835 5834 5833 5833 5832 5831 5831 5831 5830 5830 5830 5830 5831 5831 5831 5832 5832 5833 5833 5834
5846 5845 5845 5844 5844 5843 5843 5842 5841 5841 5840 5839 5838 5838 5837 5837 5836 5835 5834 5833 5833 5832 5832 5831 5830 5829 5829 5828 5828 5827 5827 5827 5827 5827 5827 5827 5828 5828 5828 5829 5829 5830 5830
5844 5843 5842 5842 5841 5841 5840 5840 5839 5838 5837 5836 5835 5835 5834 5833 5833 5832 5831 5830 5829 5829 5828 5827 5827 5825 5824 5824 5824 5824 5823 5823 5823 5823 5824 5824 5824 5824 5825 5825 5826 5826 5827
5841 5841 5840 5839 5839 5838 5837 5837 5836 5835 5834 5833 5833 5832 5831 5830 5829 5828 5828 5827 5826 5825 5824 5823 5822 5821 5819 5818 5819 5819 5820 5820 5820 5820 5820 5820 5820 5821 5821 5822 5822 5823 5823
5839 5838 5838 5837 5836 5835 5835 5834 5833 5832 5831 5830 5830 5829 5828 5827 5826 5825 5824 5823 5822 5821 5820 5819 5818 5817 5815 5813 5814 5815 5816 5817 5816 5816 5817 5817 5817 5817 5818 5818 5818 5819 5819
5836 5835 5835 5834 5833 5832 5832 5831 5830 5829 5828 5827 5826 5825 5824 5824 5822 5821 5821 5820 5819 5818 5817 5816 5815 5813 5811 5811 5811 5812 5813 5813 5813 5813 5813 5813 5813 5813 5814 5814 5814 5815 5815
5833 5832 5832 5831 5830 5829 5828 5828 5827 5826 5825 5824 5823 5822 5821 5820 5819 5818 5817 5816 5814 5814 5813 5812 5811 5810 5809 5809 5809 5809 5809 5809 5809 5809 5809 5809 5809 5810 5810 5810 5810 5810 5810
5830 5829 5829 5828 5827 5826 5825 5824 5823 5822 5821 5820 5819 5819 5818 5817 5816 5814 5813 5811 5810 5809 5808 5808 5807 5807 5806 5805 5805 5805 5805 5805 5805 5805 5805 5805 5806 5806 5806 5806 5805 5805 5805
5827 5826 5825 5824 5823 5822 5821 5820 5820 5819 5818 5817 5816 5815 5814 5813 5812 5810 5809 5808 5806 5805 5804 5803 5803 5802 5802 5801 5801 5801 5801 5801 5801 5801 5801 5801 5801 5801 5801 5801 5801 5801 5800
5823 5822 5821 5820 5819 5818 5817 5817 5816 5815 5814 5813 5812 5810 5809 5808 5807 5806 5805 5803 5802 5801 5799 5798 5798 5797 5797 5796 5796 5796 5795 5795 5796 5796 5796 5796 5796 5796 5796 5796 5796 5795 5795
5819 5818 5817 5816 5815 5814 5813 5812 5811 5810 5809 5808 5807 5806 5805 5804 5802 5801 5800 5798 5797 5796 5794 5793 5792 5792 5791 5791 5790 5790 5790 5790 5790 5790 5790 5790 5790 5790 5790 5790 5790 5790 5790
5814 5813 5812 5812 5811 5810 5809 5808 5807 5806 5805 5804 5802 5801 5800 5798 5797 5796 5794 5793 5791 5790 5789 5788 5786 5786 5785 5785 5784 5784 5784 5783 5783 5783 5783 5784 5784 5784 5784 5784 5784 5784 5784
5809 5809 5808 5807 5806 5805 5804 5803 5802 5801 5800 5799 5797 5796 5795 5793 5792 5790 5788 5786 5785 5784 5783 5781 5780 5779 5778 5778 5778 5778 5777 5777 5777 5777 5777 5777 5777 5777 5777 5777 5777 5777 5778
5804 5803 5803 5802 5801 5800 5799 5798 5797 5796 5795 5793 5792 5791 5789 5787 5786 5784 5782 5780 5778 5777 5776 5775 5774 5772 5771 5771 5771 5771 5771 5770 5770 5770 5770 5770 5770 5770 5770 5770 5771 5771 5771
5798 5797 5797 5796 5795 5794 5793 5792 5791 5790 5789 5787 5786 5785 5783 5781 5779 5778 5776 5774 5772 5770 5769 5768 5767 5766 5765 5764 5764 5764 5764 5764 5763 5763 5763 5763 5763 5763 5763 5763 5763 5763 5764
5792 5791 5790 5790 5789 5788 5787 5786 5785 5784 5783 5781 5780 5778 5777 5775 5773 5771 5769 5767 5766 5764 5763 5761 5760 5758 5758 5757 5757 5757 5757 5756 5756 5756 5755 5755 5755 5755 5755 5756 5756 5756 5756
5786 5785 5784 5783 5782 5782 5781 5780 5779 5778 5776 5775 5773 5771 5770 5768 5766 5765 5763 5761 5759 5758 5756 5755 5753 5752 5751 5750 5750 5749 5749 5749 5748 5748 5747 5747 5747 5748 5748 5748 5748 5748 5748
5778 5778 5777 5776 5775 5774 5774 5772 5772 5771 5769 5768 5766 5764 5762 5761 5759 5758 5756 5754 5753 5751 5749 5747 5746 5745 5744 5743 5742 5742 5741 5741 5740 5740 5739 5739 5739 5739 5739 5739 5740 5740 5740
5771 5770 5769 5769 5768 5767 5766 5765 5764 5763 5762 5760 5758 5757 5755 5753 5752 5750 5748 5747 5745 5744 5742 5740 5739 5738 5737 5736 5735 5734 5733 5733 5732 5731 5731 5731 5730 5730 5730 5730 5730 5730 5731
5763 5762 5762 5761 5760 5760 5759 5758 5757 5755 5754 5752 5751 5749 5748 5746 5744 5743 5741 5739 5737 5736 5734 5733 5732 5730 5729 5728 5727 5726 5725 5725 5724 5724 5723 5723 5722 5721 5721 5721 5721 5721 5721
5754 5754 5753 5753 5753 5752 5751 5749 5748 5747 5745 5744 5742 5741 5740 5738 5737 5735 5733 5731 5729 5727 5726 5725 5724 5723 5721 5720 5718 5718 5717 5716 5715 5714 5714 5713 5713 5712 5712 5711 5711 5711 5711
5745 5745 5745 5744 5744 5743 5742 5741 5740 5738 5737 5735 5734 5732 5731 5730 5728 5727 5725 5723 5721 5719 5717 5716 5715 5714 5713 5712 5710 5709 5708 5707 5706 5705 5703 5703 5703 5703 5702 5702 5701 5701 5701
5736 5736 5736 5735 5735 5734 5733 5732 5731 5729 5728 5726 5725 5723 5722 5721 5719 5718 5716 5715 5713 5711 5708 5707 5706 5705 5704 5702 5701 5700 5699 5698 5697 5696 5694 5693 5693 5692 5692 5692 5692 5691 5691
5727 5727 5726 5726 5725 5725 5724 5723 5722 5721 5719 5718 5716 5714 5713 5712 5710 5708 5707 5706 5704 5702 5700 5699 5697 5696 5694 5693 5691 5690 5689 5688 5687 5686 5685 5684 5683 5682 5683 5683 5682 5682 5681